Total_Precipitation_Accumulation
0.05 0.09 0.15 0.19 0.17 0.13 0.09 0.07 0.09 0.16 0.31 0.39 0.48 0.53 0.54 0.55 0.51 0.45 0.40 0.37 0.29 0.27 0.29 0.37 0.49 0.52 0.57 0.68 0.87 0.88 1.00 1.12 1.17 1.25 1.33 1.40 1.46 1.47 1.43 1.42 1.43 1.54 1.61 1.61
0.04 0.07 0.11 0.13 0.16 0.11 0.09 0.07 0.07 0.15 0.34 0.42 0.41 0.45 0.54 0.55 0.55 0.51 0.40 0.36 0.37 0.38 0.38 0.41 0.46 0.53 0.59 0.62 0.76 0.93 1.17 1.42 1.46 1.54 1.62 1.71 1.85 1.94 1.84 1.74 1.80 1.88 1.82 1.72
0.07 0.10 0.11 0.15 0.15 0.12 0.13 0.12 0.14 0.21 0.32 0.37 0.41 0.50 0.69 0.71 0.66 0.65 0.56 0.51 0.51 0.57 0.55 0.52 0.53 0.57 0.61 0.67 0.80 1.02 1.26 1.51 1.70 1.81 1.88 1.98 2.08 2.10 2.03 2.07 2.14 2.17 2.08 1.90
0.12 0.16 0.22 0.19 0.19 0.17 0.19 0.22 0.26 0.34 0.36 0.46 0.64 0.75 0.87 0.91 0.81 0.77 0.68 0.60 0.59 0.69 0.73 0.67 0.65 0.73 0.82 0.95 1.10 1.29 1.46 1.62 1.79 1.82 1.84 1.91 2.00 1.95 1.96 2.06 2.14 2.16 2.10 1.99
0.22 0.25 0.24 0.25 0.29 0.30 0.33 0.45 0.45 0.53 0.59 0.67 0.75 0.73 0.78 0.75 0.65 0.60 0.58 0.64 0.68 0.73 0.80 0.81 0.81 0.89 0.95 1.03 1.15 1.32 1.45 1.53 1.58 1.68 1.77 1.82 1.86 1.91 1.96 1.97 1.89 1.81 1.79 1.81
0.36 0.38 0.40 0.42 0.44 0.41 0.47 0.86 0.89 0.82 0.78 0.75 0.77 0.94 0.89 0.71 0.63 0.61 0.58 0.60 0.69 0.68 0.70 0.77 0.85 0.89 0.91 1.00 1.14 1.33 1.46 1.47 1.47 1.58 1.68 1.75 1.80 1.86 1.84 1.79 1.75 1.71 1.66 1.68
0.49 0.53 0.48 0.47 0.42 0.40 0.70 1.01 0.97 0.95 0.98 0.90 0.95 1.00 0.92 0.76 0.73 0.67 0.63 0.60 0.62 0.68 0.71 0.73 0.80 0.86 0.94 1.05 1.13 1.20 1.29 1.35 1.42 1.57 1.68 1.73 1.79 1.78 1.75 1.71 1.74 1.77 1.70 1.61
0.65 0.79 0.82 0.61 0.51 0.70 0.94 0.83 0.95 1.06 1.02 0.96 0.91 0.84 0.84 0.80 0.81 0.77 0.68 0.70 0.72 0.75 0.84 0.88 0.91 0.92 0.99 0.98 0.97 1.04 1.08 1.13 1.17 1.27 1.41 1.47 1.56 1.56 1.59 1.56 1.52 1.51 1.49 1.41
0.88 0.98 0.82 0.70 0.73 0.80 0.82 0.82 0.87 0.97 1.02 0.98 0.99 0.97 0.83 0.77 0.74 0.84 0.87 0.86 0.84 0.81 0.84 0.88 0.95 1.01 1.06 1.00 0.93 0.92 0.91 0.91 0.95 1.01 1.19 1.34 1.39 1.38 1.40 1.41 1.38 1.35 1.31 1.26
1.06 1.12 0.98 0.90 0.86 0.80 0.77 0.79 0.80 0.90 1.02 1.05 1.00 0.87 0.78 0.68 0.60 0.57 0.59 0.62 0.69 0.74 0.79 0.87 0.84 0.86 0.92 0.92 0.89 0.91 0.94 0.94 0.97 1.04 1.15 1.38 1.48 1.39 1.33 1.31 1.27 1.26 1.21 1.22
1.16 1.22 1.04 0.93 0.88 0.90 0.85 0.80 0.81 0.90 0.99 0.98 0.86 0.80 0.73 0.64 0.54 0.48 0.46 0.46 0.50 0.56 0.58 0.62 0.62 0.66 0.70 0.74 0.81 0.84 0.84 0.81 0.81 0.87 1.00 1.22 1.35 1.34 1.20 1.17 1.20 1.23 1.20 1.18
1.24 1.13 1.15 1.16 1.05 1.00 1.01 0.97 0.94 0.97 1.02 0.93 0.82 0.75 0.67 0.56 0.49 0.46 0.42 0.41 0.46 0.50 0.52 0.54 0.57 0.65 0.73 0.83 0.90 0.91 0.86 0.79 0.76 0.78 0.88 1.07 1.29 1.36 1.21 1.02 1.03 1.01 0.96 0.93
1.05 1.02 1.13 1.18 1.18 1.19 1.23 1.13 1.06 1.05 0.99 0.87 0.85 0.75 0.64 0.57 0.50 0.46 0.43 0.41 0.45 0.48 0.52 0.60 0.63 0.60 0.64 0.75 0.85 0.91 0.89 0.83 0.79 0.78 0.82 0.94 1.18 1.42 1.46 1.22 1.01 0.91 0.79 0.69
1.01 1.03 1.20 1.26 1.31 1.33 1.28 1.19 1.11 1.13 1.06 0.94 0.84 0.74 0.66 0.65 0.57 0.51 0.50 0.52 0.56 0.60 0.65 0.68 0.68 0.65 0.62 0.69 0.78 0.85 0.87 0.84 0.75 0.72 0.74 0.84 1.06 1.34 1.52 1.47 1.28 1.03 0.75 0.58
1.04 1.12 1.14 1.07 1.14 1.18 1.17 1.12 1.05 1.10 1.07 0.98 0.83 0.69 0.60 0.59 0.61 0.61 0.61 0.67 0.76 0.78 0.74 0.73 0.70 0.68 0.65 0.68 0.74 0.78 0.82 0.81 0.75 0.74 0.76 0.80 0.98 1.23 1.42 1.48 1.39 1.24 0.93 0.63
1.03 1.06 0.95 0.90 0.99 1.05 1.07 0.99 0.90 0.95 0.93 0.88 0.83 0.75 0.66 0.63 0.64 0.64 0.69 0.80 0.96 0.97 0.85 0.79 0.76 0.75 0.75 0.75 0.72 0.69 0.71 0.71 0.61 0.60 0.65 0.67 0.77 0.97 1.21 1.33 1.27 1.19 1.00 0.63
0.98 1.04 0.99 0.91 0.98 1.05 1.06 0.95 0.87 0.88 0.88 0.88 0.89 0.87 0.85 0.83 0.81 0.81 0.87 0.91 0.95 0.94 0.85 0.79 0.75 0.70 0.69 0.74 0.75 0.69 0.65 0.62 0.52 0.44 0.50 0.54 0.59 0.77 1.00 1.16 1.12 1.03 0.89 0.58
0.84 0.81 0.82 0.80 0.85 0.91 0.88 0.79 0.78 0.77 0.80 0.89 0.92 0.91 0.98 0.99 0.99 1.06 1.10 1.07 0.97 0.83 0.73 0.70 0.66 0.62 0.60 0.57 0.54 0.52 0.52 0.53 0.48 0.46 0.49 0.51 0.54 0.70 0.93 1.09 1.05 0.99 0.89 0.66
0.64 0.60 0.61 0.57 0.58 0.62 0.61 0.59 0.59 0.61 0.64 0.72 0.76 0.80 0.85 0.88 0.91 1.02 1.04 1.14 1.17 1.04 0.80 0.62 0.61 0.53 0.52 0.47 0.44 0.41 0.40 0.40 0.39 0.40 0.43 0.42 0.51 0.69 0.85 0.94 0.92 0.87 0.76 0.64
0.59 0.60 0.51 0.47 0.46 0.47 0.47 0.47 0.45 0.48 0.52 0.59 0.60 0.61 0.68 0.75 0.84 0.98 1.06 1.15 1.21 1.11 0.90 0.72 0.57 0.46 0.39 0.31 0.29 0.31 0.35 0.37 0.38 0.40 0.42 0.48 0.58 0.71 0.77 0.76 0.75 0.72 0.68 0.67
0.59 0.58 0.45 0.40 0.37 0.35 0.35 0.34 0.33 0.36 0.40 0.44 0.45 0.46 0.52 0.60 0.70 0.89 1.17 1.35 1.18 0.96 0.80 0.70 0.53 0.39 0.30 0.26 0.23 0.24 0.28 0.32 0.38 0.44 0.47 0.52 0.61 0.70 0.71 0.70 0.65 0.62 0.62 0.65
0.59 0.52 0.45 0.39 0.34 0.35 0.31 0.29 0.29 0.31 0.32 0.32 0.34 0.40 0.46 0.57 0.68 0.78 0.93 1.19 1.20 1.08 0.80 0.58 0.43 0.32 0.27 0.24 0.21 0.24 0.26 0.28 0.35 0.41 0.44 0.48 0.58 0.66 0.64 0.58 0.54 0.53 0.56 0.62
0.59 0.51 0.48 0.44 0.38 0.33 0.29 0.27 0.28 0.29 0.28 0.28 0.31 0.36 0.43 0.52 0.64 0.87 1.00 0.91 0.95 1.04 0.80 0.58 0.48 0.38 0.27 0.21 0.23 0.25 0.25 0.30 0.38 0.41 0.40 0.43 0.45 0.51 0.54 0.52 0.52 0.53 0.58 0.59
0.58 0.52 0.46 0.39 0.35 0.33 0.33 0.30 0.28 0.30 0.28 0.25 0.23 0.25 0.32 0.45 0.52 0.63 0.80 0.85 0.87 0.91 0.72 0.54 0.45 0.35 0.27 0.25 0.28 0.32 0.38 0.45 0.46 0.41 0.36 0.37 0.39 0.43 0.49 0.49 0.47 0.51 0.55 0.57
0.58 0.49 0.42 0.36 0.34 0.35 0.33 0.28 0.26 0.28 0.26 0.25 0.23 0.23 0.24 0.33 0.48 0.61 0.69 0.74 0.86 0.90 0.77 0.61 0.47 0.40 0.35 0.37 0.41 0.50 0.56 0.50 0.43 0.38 0.34 0.35 0.39 0.44 0.45 0.48 0.51 0.51 0.51 0.53
0.55 0.50 0.44 0.37 0.34 0.32 0.30 0.29 0.28 0.26 0.25 0.26 0.25 0.23 0.25 0.30 0.39 0.50 0.61 0.65 0.72 0.81 0.76 0.58 0.42 0.38 0.39 0.44 0.49 0.54 0.52 0.46 0.41 0.39 0.38 0.38 0.42 0.45 0.44 0.47 0.51 0.50 0.51 0.52
0.49 0.46 0.45 0.41 0.38 0.33 0.30 0.32 0.31 0.29 0.28 0.31 0.35 0.35 0.36 0.40 0.44 0.50 0.57 0.62 0.63 0.62 0.57 0.46 0.35 0.34 0.34 0.35 0.40 0.43 0.43 0.43 0.43 0.43 0.43 0.44 0.46 0.47 0.44 0.42 0.42 0.42 0.42 0.42